Back to catalog

COSMOS 2251 DEB

AliveLEO
NORAD 34317·DEBRIS·🇷🇺 Russia

Launched Jun 16, 1993 from Plesetsk Cosmodrome

Loading…

Next Passes (next 24 hours)

TLE

FreshSource: Space-Track

Epoch: Sep 14, 2026, 21:28 UTC

1 34317U 93036NP  26257.89505192  .00000500  00000-0  43640-3 0  9995
2 34317  73.9233 300.9865 0336804 238.6724 305.8805 13.65444290873885

Track COSMOS 2251 DEB in real time with AllMySat

Download on the App Store